Weather History for Danville, IL

Change the Weather History Date:

Saturday, March 2, 2013

  Actual Average (KLAF) Record (KLAF)
Temperature  
Mean Temperature 26 °F 35 °F  
Max Temperature 30 °F 44 °F 72 °F (1992)
Min Temperature 22 °F 27 °F -3 °F (1980)
Degree Days  
Heating Degree Days 39 30  
Month to date heating degree days 60  
Since 1 July heating degree days 4394  
Cooling Degree Days 0 0  
Month to date cooling degree days 0  
Year to date cooling degree days 0  
Moisture  
Dew Point 24 °F    
Average Humidity 84    
Maximum Humidity 91    
Minimum Humidity 73    
Precipitation  
Precipitation 0.00 in 0.08 in 0.88 in (1982)
Month to date precipitation 0.16  
Year to date precipitation 3.78  
Sea Level Pressure  
Sea Level Pressure 30.11 in    
Wind  
Wind Speed 11 mph (NNW)    
Max Wind Speed 16 mph    
Max Gust Speed 21 mph    
Visibility 8 miles    
Events Snow    
T = Trace of Precipitation, MM = Missing Value Source: NWS Daily Summary

Daily Weather History Graph

Daily Weather History Graph

Search for Another Location

Airport:

Trip Planner

Search our weather history database for the weather conditions in past years. The results will help you decide how hot, cold, wet, or windy it might be!

Date:

Astronomy

Mar. 02, 2013 Rise Set
Actual Time 6:21 AM CST 5:43 PM CST
Civil Twilight 5:54 AM CST 6:10 PM CST
Nautical Twilight 5:23 AM CST 6:42 PM CST
Astronomical Twilight 4:51 AM CST 7:13 PM CST
Moon 11:23 PM CST (3/2) 8:49 AM CST (3/2)
Length of Visible Light 12h 15m
Length of Day
11h 21m
Waning Gibbous, 74% of the Moon is Illuminated
Mar 2
Waning Gibbous
Mar 4
Last Quarter
Mar 11
New
Mar 19
First Quarter
Mar 27
Full

Hourly Weather History & Observations

Time (CST) Temp. Windchill Dew Point Humidity Pressure Visibility Wind Dir Wind Speed Gust Speed Precip Events Conditions
12:15 AM 28.2 °F 18.9 °F 25.7 °F 90% 30.09 in 10.0 mi North 10.4 mph - N/A   Unknown
12:35 AM 28.2 °F 20.2 °F 25.2 °F 88% 30.09 in 10.0 mi NNW 8.1 mph - N/A   Unknown
12:55 AM 28.0 °F 20.0 °F 25.2 °F 89% 30.10 in 10.0 mi NNW 8.1 mph - N/A   Overcast
1:15 AM 28.0 °F 17.5 °F 25.0 °F 88% 30.09 in 10.0 mi NNW 12.7 mph - N/A   Overcast
1:35 AM 27.9 °F 17.8 °F 24.8 °F 88% 30.09 in 10.0 mi NNW 11.5 mph - N/A   Overcast
1:55 AM 27.5 °F 17.4 °F 24.8 °F 90% 30.09 in 10.0 mi NNW 11.5 mph - N/A   Overcast
2:15 AM 27.5 °F 16.8 °F 24.6 °F 89% 30.08 in 10.0 mi NNW 12.7 mph 17.3 mph N/A   Overcast
2:35 AM 26.6 °F 17.5 °F 23.9 °F 90% 30.08 in 10.0 mi NNW 9.2 mph - N/A   Scattered Clouds
2:55 AM 26.8 °F 17.7 °F 23.9 °F 89% 30.08 in 10.0 mi NW 9.2 mph - N/A   Scattered Clouds
3:15 AM 27.1 °F 16.9 °F 24.1 °F 88% 30.08 in 10.0 mi NNW 11.5 mph - N/A   Overcast
3:35 AM 27.1 °F 18.2 °F 24.3 °F 89% 30.08 in 10.0 mi NNW 9.2 mph - N/A   Overcast
3:55 AM 27.1 °F 17.5 °F 24.3 °F 89% 30.08 in 10.0 mi North 10.4 mph - N/A   Overcast
4:15 AM 27.3 °F 16.6 °F 24.4 °F 89% 30.08 in 10.0 mi North 12.7 mph - N/A   Overcast
4:35 AM 27.3 °F 15.2 °F 24.4 °F 89% 30.08 in 10.0 mi North 16.1 mph - N/A Snow Light Snow
4:55 AM 27.5 °F 17.4 °F 24.6 °F 89% 30.08 in 10.0 mi North 11.5 mph - N/A   Overcast
5:15 AM 27.5 °F 17.4 °F 24.6 °F 89% 30.08 in 10.0 mi North 11.5 mph - N/A Snow Light Snow
5:35 AM 27.5 °F 17.4 °F 24.6 °F 89% 30.08 in 10.0 mi NNW 11.5 mph - N/A Snow Light Snow
5:55 AM 27.5 °F 18.6 °F 24.6 °F 89% 30.08 in 10.0 mi North 9.2 mph - N/A   Overcast
6:15 AM 27.5 °F 18.6 °F 24.8 °F 90% 30.08 in 10.0 mi North 9.2 mph - N/A   Overcast
6:35 AM 27.5 °F 20.2 °F 24.8 °F 90% 30.09 in 10.0 mi NNW 6.9 mph - N/A   Overcast
6:55 AM 27.5 °F 19.3 °F 24.6 °F 89% 30.10 in 10.0 mi North 8.1 mph - N/A   Overcast
7:15 AM 27.9 °F 19.8 °F 24.8 °F 88% 30.10 in 10.0 mi NNW 8.1 mph - N/A Snow Light Snow
7:35 AM 28.0 °F 19.3 °F 25.2 °F 89% 30.11 in 7.0 mi NNW 9.2 mph - N/A Snow Light Snow
7:55 AM 28.0 °F 20.0 °F 25.5 °F 90% 30.11 in 3.0 mi NNW 8.1 mph - N/A Snow Light Snow
8:15 AM 27.9 °F 19.8 °F 25.5 °F 91% 30.12 in 1.8 mi North 8.1 mph - N/A Snow Light Snow
8:35 AM 28.4 °F 20.4 °F 26.1 °F 91% 30.12 in 3.0 mi North 8.1 mph - N/A Snow Light Snow
8:55 AM 28.4 °F 19.7 °F 24.8 °F 86% 30.12 in 7.0 mi North 9.2 mph - N/A Snow Light Snow
9:15 AM 28.8 °F 20.2 °F 25.0 °F 86% 30.12 in 7.0 mi North 9.2 mph - N/A   Overcast
9:35 AM 28.9 °F 19.8 °F 25.3 °F 86% 30.12 in 5.0 mi North 10.4 mph - N/A Snow Light Snow
9:55 AM 28.8 °F 20.2 °F 25.5 °F 88% 30.12 in 4.0 mi NNW 9.2 mph - N/A Snow Light Snow
10:15 AM 29.8 °F 20.9 °F 25.7 °F 85% 30.12 in 7.0 mi NNW 10.4 mph - N/A Snow Light Snow
10:35 AM 30.2 °F 20.8 °F 26.6 °F 86% 30.12 in 5.0 mi North 11.5 mph - N/A Snow Light Snow
10:55 AM 29.5 °F 21.1 °F 26.2 °F 88% 30.13 in 4.0 mi NNW 9.2 mph - N/A Snow Light Snow
11:15 AM 29.7 °F 20.7 °F 26.2 °F 87% 30.13 in 5.0 mi North 10.4 mph - N/A Snow Light Snow
11:35 AM 29.7 °F 20.1 °F 25.5 °F 85% 30.12 in 10.0 mi NNW 11.5 mph - N/A Snow Light Snow
11:55 AM 30.2 °F 20.2 °F 26.2 °F 85% 30.11 in 10.0 mi NNW 12.7 mph 17.3 mph N/A Snow Light Snow
12:15 PM 30.2 °F 20.8 °F 26.1 °F 85% 30.11 in 7.0 mi NNW 11.5 mph - N/A Snow Light Snow
12:35 PM 29.8 °F 19.8 °F 26.1 °F 86% 30.11 in 4.0 mi North 12.7 mph 16.1 mph N/A Snow Light Snow
12:55 PM 30.0 °F 19.5 °F 25.7 °F 84% 30.10 in 5.0 mi NNW 13.8 mph 17.3 mph N/A Snow Light Snow
1:15 PM 30.2 °F 20.2 °F 25.3 °F 82% 30.10 in 5.0 mi NNW 12.7 mph - N/A Snow Light Snow
1:35 PM 30.2 °F 21.3 °F 25.2 °F 82% 30.09 in 3.0 mi NNW 10.4 mph - N/A Snow Light Snow
1:55 PM 29.7 °F 20.1 °F 25.7 °F 85% 30.09 in 5.0 mi NW 11.5 mph 17.3 mph N/A Snow Light Snow
2:15 PM 30.2 °F 19.3 °F 25.3 °F 82% 30.10 in 7.0 mi NW 15.0 mph 20.7 mph N/A Snow Light Snow
2:35 PM 30.0 °F 19.5 °F 25.2 °F 82% 30.09 in 7.0 mi NNW 13.8 mph 18.4 mph N/A Snow Light Snow
2:55 PM 30.0 °F 19.5 °F 25.3 °F 83% 30.10 in 5.0 mi NNW 13.8 mph 18.4 mph N/A Snow Light Snow
3:15 PM 29.7 °F 19.6 °F 25.2 °F 83% 30.10 in 5.0 mi NNW 12.7 mph - N/A Snow Light Snow
3:35 PM 29.7 °F 20.7 °F 24.6 °F 81% 30.10 in 5.0 mi NW 10.4 mph - N/A Snow Light Snow
3:55 PM 29.8 °F 19.8 °F 25.2 °F 83% 30.11 in 5.0 mi NNW 12.7 mph - N/A Snow Light Snow
4:15 PM 29.7 °F 20.7 °F 23.9 °F 79% 30.11 in 10.0 mi NW 10.4 mph - N/A Snow Light Snow
4:35 PM 29.8 °F 20.9 °F 23.4 °F 77% 30.11 in 10.0 mi NW 10.4 mph - N/A   Overcast
4:55 PM 29.8 °F 21.5 °F 23.4 °F 77% 30.11 in 10.0 mi NW 9.2 mph - N/A   Overcast
5:15 PM 29.8 °F 19.3 °F 23.0 °F 76% 30.11 in 10.0 mi NW 13.8 mph - N/A   Overcast
5:35 PM 29.5 °F 18.8 °F 22.8 °F 76% 30.12 in 10.0 mi NNW 13.8 mph - N/A   Overcast
5:55 PM 29.3 °F 18.6 °F 22.8 °F 77% 30.12 in 10.0 mi NW 13.8 mph 19.6 mph N/A   Overcast
6:15 PM 28.9 °F 18.2 °F 22.5 °F 77% 30.13 in 10.0 mi NW 13.8 mph - N/A Snow Light Snow
6:35 PM 28.8 °F 19.0 °F 22.5 °F 77% 30.13 in 10.0 mi NW 11.5 mph - N/A   Overcast
6:55 PM 28.8 °F 19.5 °F 21.9 °F 76% 30.13 in 10.0 mi NW 10.4 mph - N/A   Overcast
7:15 PM 28.4 °F 18.5 °F 21.9 °F 77% 30.13 in 10.0 mi NW 11.5 mph 16.1 mph N/A   Overcast
7:35 PM 28.2 °F 17.2 °F 21.2 °F 75% 30.13 in 10.0 mi NW 13.8 mph - N/A   Overcast
7:55 PM 28.4 °F 18.5 °F 22.1 °F 77% 30.13 in 10.0 mi NW 11.5 mph 17.3 mph N/A   Overcast
8:15 PM 28.2 °F 18.9 °F 22.5 °F 79% 30.13 in 10.0 mi NW 10.4 mph - N/A   Overcast
8:35 PM 28.4 °F 17.5 °F 21.2 °F 74% 30.14 in 10.0 mi NW 13.8 mph - N/A   Overcast
8:55 PM 27.1 °F 17.5 °F 19.4 °F 73% 30.14 in 10.0 mi NW 10.4 mph - N/A   Overcast
9:15 PM 26.4 °F 16.0 °F 19.4 °F 75% 30.14 in 10.0 mi NW 11.5 mph 16.1 mph N/A   Overcast
9:35 PM 26.6 °F 15.7 °F 19.4 °F 74% 30.14 in 10.0 mi NW 12.7 mph - N/A   Overcast
9:55 PM 24.8 °F 13.4 °F 17.6 °F 74% 30.14 in 10.0 mi NW 12.7 mph 17.3 mph N/A   Overcast
10:15 PM 24.6 °F 13.8 °F 17.4 °F 74% 30.13 in 10.0 mi NW 11.5 mph - N/A   Overcast
10:35 PM 24.1 °F 13.7 °F 17.1 °F 75% 30.13 in 10.0 mi NW 10.4 mph - N/A   Mostly Cloudy
10:55 PM 23.5 °F 14.5 °F 17.2 °F 77% 30.13 in 10.0 mi NW 8.1 mph - N/A   Scattered Clouds
11:15 PM 23.0 °F 12.4 °F 17.4 °F 79% 30.13 in 10.0 mi NW 10.4 mph - N/A   Clear
11:35 PM 22.8 °F 12.2 °F 17.8 °F 81% 30.13 in 10.0 mi NW 10.4 mph - N/A   Clear
11:55 PM 22.6 °F 12.6 °F 17.8 °F 82% 30.12 in 10.0 mi NW 9.2 mph - N/A   Clear